CCM225 LFKC-LFBD

Flight info

Callsign CCM225
Flight time 1h 14m
Altitude 33000
Route SODRI DCT MERLU DCT OMARD DCT LERMA DCT STP DCT TURIL DCT ADITA DCT PADKO/N0455F340 DCT ROVOT DCT FJR DCT DEGOL DCT AMOLO DCT GAI DCT LACOU DCT SECHE DCT MIRBA
Aircraft A320/M-SDE3FGHIRWY/LB1

Departure

Time 2026-04-24 07:18
Airport Calvi Sainte Catherine Airport (LFKC)

Arrival

Time 2026-04-24 08:32
Airport Bordeaux–Mérignac Airport (LFBD)
Time Latitude Longitude Altitude Speed Heading
2026-04-24 07:10 42.52470 8.79081 180 ft 0 kts 301°
2026-04-24 07:14 42.52474 8.79081 179 ft 2 kts 340°
2026-04-24 07:14 42.52471 8.79116 180 ft 5 kts 130°
2026-04-24 07:14 42.52455 8.79141 180 ft 2 kts 131°
2026-04-24 07:15 42.52448 8.79152 180 ft 3 kts 132°
2026-04-24 07:15 42.52432 8.79226 181 ft 9 kts 84°
2026-04-24 07:15 42.52476 8.79293 180 ft 20 kts 19°
2026-04-24 07:15 42.52674 8.79304 168 ft 33 kts
2026-04-24 07:16 42.52921 8.79316 152 ft 38 kts
2026-04-24 07:16 42.53203 8.79317 132 ft 43 kts 358°
2026-04-24 07:16 42.53507 8.79291 114 ft 45 kts 356°
2026-04-24 07:16 42.53828 8.79284 96 ft 47 kts
2026-04-24 07:17 42.54047 8.79310 84 ft 15 kts 15°
2026-04-24 07:17 42.54098 8.79313 82 ft 3 kts 271°
2026-04-24 07:17 42.54089 8.79303 83 ft 5 kts 205°
2026-04-24 07:17 42.53809 8.79299 98 ft 84 kts 179°
2026-04-24 07:18 42.52953 8.79292 164 ft 157 kts 182°
2026-04-24 07:18 42.51833 8.79298 935 ft 163 kts 180°
2026-04-24 07:18 42.50696 8.79299 1952 ft 165 kts 184°
2026-04-24 07:18 42.49601 8.78686 2635 ft 183 kts 227°
2026-04-24 07:19 42.49125 8.77023 2970 ft 208 kts 273°
2026-04-24 07:19 42.49698 8.75151 3378 ft 232 kts 314°
2026-04-24 07:19 42.51041 8.73741 3876 ft 258 kts 329°
2026-04-24 07:19 42.52657 8.72541 4642 ft 270 kts 334°
2026-04-24 07:20 42.54363 8.71409 5580 ft 276 kts 335°
2026-04-24 07:20 42.56101 8.70270 6529 ft 280 kts 335°
2026-04-24 07:20 42.57859 8.69087 7423 ft 284 kts 335°
2026-04-24 07:20 42.59623 8.67859 8380 ft 286 kts 334°
2026-04-24 07:21 42.61384 8.66603 9354 ft 287 kts 334°
2026-04-24 07:21 42.63158 8.65319 9973 ft 288 kts 333°
2026-04-24 07:21 42.64935 8.64022 10439 ft 298 kts 333°
2026-04-24 07:21 42.66836 8.62634 10736 ft 322 kts 333°
2026-04-24 07:22 42.68881 8.61141 11015 ft 345 kts 333°
2026-04-24 07:22 42.71029 8.59567 11671 ft 353 kts 333°
2026-04-24 07:22 42.73184 8.57978 12591 ft 353 kts 333°
2026-04-24 07:22 42.75349 8.56380 13416 ft 356 kts 333°
2026-04-24 07:23 42.77536 8.54769 14179 ft 359 kts 333°
2026-04-24 07:23 42.79742 8.53142 14879 ft 362 kts 333°
2026-04-24 07:23 42.81964 8.51502 15592 ft 365 kts 333°
2026-04-24 07:23 42.84203 8.49848 16290 ft 367 kts 332°
2026-04-24 07:24 42.86459 8.48181 16978 ft 370 kts 332°
2026-04-24 07:24 42.88731 8.46505 17649 ft 372 kts 332°
2026-04-24 07:24 42.91018 8.44818 18320 ft 375 kts 332°
2026-04-24 07:24 42.93320 8.43114 18904 ft 378 kts 332°
2026-04-24 07:25 42.95634 8.41397 19495 ft 380 kts 332°
2026-04-24 07:25 42.97854 8.39428 20079 ft 382 kts 322°
2026-04-24 07:25 42.99736 8.36847 20646 ft 386 kts 310°
2026-04-24 07:25 43.01182 8.33733 21187 ft 392 kts 298°
2026-04-24 07:26 43.02099 8.30254 21716 ft 398 kts 286°
2026-04-24 07:26 43.02580 8.26502 22240 ft 402 kts 283°
2026-04-24 07:26 43.03020 8.22719 22760 ft 404 kts 283°
2026-04-24 07:26 43.03461 8.18918 23251 ft 406 kts 283°
2026-04-24 07:27 43.03903 8.15095 23726 ft 408 kts 283°
2026-04-24 07:27 43.04348 8.11256 24112 ft 410 kts 283°
2026-04-24 07:27 43.04796 8.07395 24495 ft 412 kts 283°
2026-04-24 07:27 43.05245 8.03513 24848 ft 415 kts 283°
2026-04-24 07:28 43.05694 7.99613 25198 ft 417 kts 283°
2026-04-24 07:28 43.06144 7.95690 25553 ft 419 kts 283°
2026-04-24 07:28 43.06596 7.91744 25899 ft 421 kts 283°
2026-04-24 07:28 43.07048 7.87776 26223 ft 424 kts 282°
2026-04-24 07:29 43.07501 7.83784 26546 ft 426 kts 282°
2026-04-24 07:29 43.07953 7.79774 26866 ft 428 kts 282°
2026-04-24 07:29 43.08416 7.75745 27177 ft 430 kts 283°
2026-04-24 07:29 43.08905 7.71699 27464 ft 432 kts 283°
2026-04-24 07:30 43.09409 7.67640 27745 ft 434 kts 283°
2026-04-24 07:30 43.09919 7.63559 28028 ft 436 kts 283°
2026-04-24 07:30 43.10431 7.59455 28254 ft 438 kts 283°
2026-04-24 07:30 43.10942 7.55311 28349 ft 446 kts 281°
2026-04-24 07:31 43.11452 7.51083 28481 ft 454 kts 281°
2026-04-24 07:31 43.11964 7.46780 28620 ft 461 kts 281°
2026-04-24 07:31 43.12479 7.42414 28756 ft 468 kts 280°
2026-04-24 07:31 43.13001 7.37998 28891 ft 473 kts 281°
2026-04-24 07:32 43.13531 7.33529 29026 ft 478 kts 280°
2026-04-24 07:32 43.14064 7.29014 29182 ft 482 kts 280°
2026-04-24 07:32 43.14597 7.24482 29471 ft 482 kts 280°
2026-04-24 07:32 43.15126 7.19951 29783 ft 482 kts 280°
2026-04-24 07:33 43.15645 7.15480 30096 ft 482 kts 280°
2026-04-24 07:33 43.16170 7.10945 30390 ft 482 kts 280°
2026-04-24 07:33 43.16696 7.06414 30670 ft 481 kts 280°
2026-04-24 07:33 43.17221 7.01893 30973 ft 480 kts 280°
2026-04-24 07:34 43.17741 6.97386 31278 ft 478 kts 280°
2026-04-24 07:34 43.18254 6.92892 31593 ft 477 kts 280°
2026-04-24 07:34 43.18764 6.88404 31900 ft 476 kts 280°
2026-04-24 07:34 43.19275 6.83940 32224 ft 474 kts 280°
2026-04-24 07:35 43.19785 6.79482 32540 ft 473 kts 279°
2026-04-24 07:35 43.20289 6.75040 32857 ft 471 kts 279°
2026-04-24 07:35 43.20788 6.70604 33126 ft 470 kts 279°
2026-04-24 07:35 43.21283 6.66174 33187 ft 470 kts 279°
2026-04-24 07:36 43.21998 6.57299 33192 ft 469 kts 272°
2026-04-24 07:36 43.22109 6.48363 33188 ft 468 kts 272°
2026-04-24 07:37 43.22236 6.39449 33188 ft 467 kts 272°
2026-04-24 07:37 43.22361 6.30556 33185 ft 466 kts 272°
2026-04-24 07:38 43.22472 6.21676 33191 ft 465 kts 272°
2026-04-24 07:38 43.22573 6.12812 33192 ft 465 kts 272°
2026-04-24 07:39 43.22662 6.03959 33189 ft 464 kts 272°
2026-04-24 07:39 43.22751 5.95121 33192 ft 463 kts 272°
2026-04-24 07:40 43.22834 5.86304 33189 ft 462 kts 272°
2026-04-24 07:40 43.22901 5.77503 33186 ft 461 kts 272°
2026-04-24 07:41 43.22969 5.68723 33187 ft 460 kts 272°
2026-04-24 07:41 43.23033 5.60021 33183 ft 459 kts 272°
2026-04-24 07:42 43.23087 5.51280 33182 ft 458 kts 272°
2026-04-24 07:42 43.23126 5.42556 33180 ft 457 kts 272°
2026-04-24 07:43 43.23403 5.33885 33176 ft 452 kts 282°
2026-04-24 07:43 43.25163 5.25691 33175 ft 447 kts 292°
2026-04-24 07:44 43.27266 5.17679 33178 ft 446 kts 292°
2026-04-24 07:44 43.29352 5.09683 33176 ft 444 kts 292°
2026-04-24 07:45 43.31073 5.03042 33176 ft 444 kts 292°
2026-04-24 07:45 43.33130 4.95068 33179 ft 443 kts 292°
2026-04-24 07:46 43.35187 4.87103 33175 ft 442 kts 292°
2026-04-24 07:46 43.37240 4.79149 33172 ft 441 kts 292°
2026-04-24 07:47 43.39283 4.71198 33170 ft 441 kts 292°
2026-04-24 07:47 43.41309 4.63250 33173 ft 440 kts 292°
2026-04-24 07:48 43.43330 4.55310 33175 ft 440 kts 292°
2026-04-24 07:48 43.45349 4.47368 33181 ft 439 kts 292°
2026-04-24 07:49 43.47358 4.39428 33180 ft 439 kts 292°
2026-04-24 07:49 43.49359 4.31484 33178 ft 439 kts 292°
2026-04-24 07:50 43.51349 4.23526 33177 ft 439 kts 291°
2026-04-24 07:50 43.53331 4.15570 33172 ft 439 kts 291°
2026-04-24 07:51 43.55314 4.07618 33178 ft 439 kts 291°
2026-04-24 07:51 43.57299 3.99655 33178 ft 439 kts 291°
2026-04-24 07:52 43.59088 3.91597 33179 ft 440 kts 287°
2026-04-24 07:52 43.60548 3.83388 33173 ft 441 kts 285°
2026-04-24 07:53 43.61957 3.75157 33174 ft 441 kts 286°
2026-04-24 07:53 43.63434 3.66953 33181 ft 440 kts 287°
2026-04-24 07:54 43.64950 3.58762 33170 ft 440 kts 287°
2026-04-24 07:54 43.66454 3.50565 33171 ft 440 kts 286°
2026-04-24 07:55 43.67938 3.42360 33168 ft 440 kts 286°
2026-04-24 07:55 43.69407 3.34148 33173 ft 440 kts 286°
2026-04-24 07:56 43.70874 3.25928 33168 ft 440 kts 286°
2026-04-24 07:56 43.72337 3.17706 33156 ft 440 kts 286°
2026-04-24 07:57 43.73790 3.09484 33148 ft 441 kts 285°
2026-04-24 07:57 43.75244 3.01253 33153 ft 440 kts 285°
2026-04-24 07:58 43.76693 2.93027 33151 ft 440 kts 285°
2026-04-24 07:58 43.78141 2.84789 33143 ft 440 kts 285°
2026-04-24 07:59 43.79577 2.76555 33139 ft 440 kts 285°
2026-04-24 07:59 43.81003 2.68316 33133 ft 440 kts 285°
2026-04-24 08:00 43.82418 2.60077 33124 ft 440 kts 285°
2026-04-24 08:00 43.83826 2.51837 33118 ft 440 kts 285°
2026-04-24 08:01 43.85225 2.43595 33110 ft 439 kts 285°
2026-04-24 08:01 43.86619 2.35352 33107 ft 439 kts 285°
2026-04-24 08:02 43.88005 2.27109 33104 ft 439 kts 284°
2026-04-24 08:02 43.89382 2.18869 33107 ft 439 kts 284°
2026-04-24 08:03 43.90759 2.10629 33107 ft 438 kts 284°
2026-04-24 08:03 43.92128 2.02390 33102 ft 438 kts 284°
2026-04-24 08:04 43.93484 1.94151 33105 ft 438 kts 284°
2026-04-24 08:04 43.94839 1.85905 33107 ft 438 kts 285°
2026-04-24 08:05 43.97045 1.78076 33104 ft 436 kts 298°
2026-04-24 08:05 43.99873 1.70625 33102 ft 436 kts 298°
2026-04-24 08:06 44.02690 1.63155 33103 ft 437 kts 298°
2026-04-24 08:06 44.05500 1.55665 33101 ft 437 kts 298°
2026-04-24 08:07 44.08292 1.48213 33101 ft 438 kts 298°
2026-04-24 08:07 44.11102 1.40702 33100 ft 438 kts 298°
2026-04-24 08:08 44.13909 1.33170 33103 ft 438 kts 298°
2026-04-24 08:09 44.18105 1.21847 33103 ft 439 kts 297°
2026-04-24 08:09 44.20904 1.14275 33102 ft 440 kts 297°
2026-04-24 08:10 44.23708 1.06694 33102 ft 440 kts 297°
2026-04-24 08:10 44.26506 0.99108 32599 ft 439 kts 297°
2026-04-24 08:10 44.27902 0.95300 31939 ft 442 kts 297°
2026-04-24 08:11 44.29302 0.91474 31312 ft 444 kts 297°
2026-04-24 08:11 44.30710 0.87629 30697 ft 446 kts 297°
2026-04-24 08:11 44.32124 0.83770 30083 ft 447 kts 297°
2026-04-24 08:11 44.33541 0.79897 29375 ft 449 kts 297°
2026-04-24 08:12 44.34963 0.76009 28687 ft 450 kts 297°
2026-04-24 08:12 44.36390 0.72107 28016 ft 452 kts 297°
2026-04-24 08:12 44.37819 0.68193 27368 ft 453 kts 297°
2026-04-24 08:12 44.39252 0.64259 26731 ft 455 kts 297°
2026-04-24 08:13 44.40680 0.60323 26102 ft 452 kts 297°
2026-04-24 08:13 44.42174 0.56482 25491 ft 448 kts 303°
2026-04-24 08:13 44.44087 0.53078 24894 ft 444 kts 314°
2026-04-24 08:13 44.46409 0.50262 24313 ft 440 kts 324°
2026-04-24 08:14 44.49045 0.48115 23748 ft 437 kts 334°
2026-04-24 08:14 44.51788 0.46316 23078 ft 434 kts 334°
2026-04-24 08:14 44.54475 0.44552 22417 ft 430 kts 334°
2026-04-24 08:14 44.57205 0.42757 21758 ft 426 kts 334°
2026-04-24 08:15 44.59841 0.41019 21135 ft 422 kts 334°
2026-04-24 08:15 44.62487 0.39270 20512 ft 419 kts 334°
2026-04-24 08:15 44.65109 0.37529 19902 ft 416 kts 334°
2026-04-24 08:15 44.67714 0.35797 19303 ft 413 kts 334°
2026-04-24 08:16 44.70180 0.33784 18722 ft 409 kts 323°
2026-04-24 08:16 44.72271 0.31111 18105 ft 405 kts 311°
2026-04-24 08:16 44.73896 0.27901 17440 ft 402 kts 299°
2026-04-24 08:16 44.75087 0.24363 16803 ft 399 kts 294°
2026-04-24 08:17 44.76224 0.20812 16170 ft 397 kts 294°
2026-04-24 08:17 44.77359 0.17285 15553 ft 395 kts 294°
2026-04-24 08:17 44.78491 0.13782 14948 ft 392 kts 294°
2026-04-24 08:17 44.79615 0.10303 14356 ft 389 kts 294°
2026-04-24 08:18 44.80730 0.06848 13749 ft 386 kts 294°
2026-04-24 08:18 44.81835 0.03412 13095 ft 384 kts 294°
2026-04-24 08:18 44.82925 -0.00002 12446 ft 380 kts 294°
2026-04-24 08:18 44.84000 -0.03374 11818 ft 376 kts 293°
2026-04-24 08:19 44.85066 -0.06718 11205 ft 372 kts 293°
2026-04-24 08:19 44.86105 -0.09981 10595 ft 355 kts 293°
2026-04-24 08:19 44.87084 -0.13057 10214 ft 331 kts 293°
2026-04-24 08:19 44.87986 -0.15892 10105 ft 303 kts 293°
2026-04-24 08:20 44.88793 -0.18567 10029 ft 290 kts 287°
2026-04-24 08:20 44.89182 -0.21311 9753 ft 283 kts 276°
2026-04-24 08:20 44.89411 -0.24058 9379 ft 282 kts 276°
2026-04-24 08:20 44.89642 -0.26793 8993 ft 280 kts 276°
2026-04-24 08:21 44.89874 -0.29511 8590 ft 279 kts 276°
2026-04-24 08:21 44.90103 -0.32219 8175 ft 277 kts 276°
2026-04-24 08:21 44.90332 -0.34913 7740 ft 276 kts 276°
2026-04-24 08:21 44.90559 -0.37599 7325 ft 276 kts 276°
2026-04-24 08:22 44.90784 -0.40281 6933 ft 275 kts 275°
2026-04-24 08:22 44.91007 -0.42950 6537 ft 274 kts 275°
2026-04-24 08:22 44.91230 -0.45610 6131 ft 272 kts 275°
2026-04-24 08:22 44.91452 -0.48258 5689 ft 272 kts 276°
2026-04-24 08:23 44.91673 -0.50899 5270 ft 271 kts 276°
2026-04-24 08:23 44.91895 -0.53529 5021 ft 269 kts 276°
2026-04-24 08:23 44.92116 -0.56162 5011 ft 271 kts 276°
2026-04-24 08:23 44.92338 -0.58807 5010 ft 271 kts 276°
2026-04-24 08:24 44.92555 -0.61371 5007 ft 254 kts 276°
2026-04-24 08:24 44.92757 -0.63784 4956 ft 242 kts 276°
2026-04-24 08:24 44.92952 -0.66121 4723 ft 239 kts 275°
2026-04-24 08:24 44.93141 -0.68440 4391 ft 238 kts 275°
2026-04-24 08:25 44.93326 -0.70763 4049 ft 238 kts 275°
2026-04-24 08:25 44.93508 -0.73083 3719 ft 238 kts 275°
2026-04-24 08:25 44.93692 -0.75406 3414 ft 238 kts 275°
2026-04-24 08:25 44.93882 -0.77726 3093 ft 238 kts 275°
2026-04-24 08:26 44.94072 -0.80039 2824 ft 237 kts 275°
2026-04-24 08:26 44.94259 -0.82345 2498 ft 237 kts 275°
2026-04-24 08:26 44.94445 -0.84652 2209 ft 236 kts 275°
2026-04-24 08:26 44.94578 -0.86947 2024 ft 233 kts 263°
2026-04-24 08:27 44.94117 -0.89091 2013 ft 229 kts 236°
2026-04-24 08:27 44.93054 -0.90637 2002 ft 212 kts 208°
2026-04-24 08:27 44.91737 -0.91370 2038 ft 200 kts 193°
2026-04-24 08:27 44.90407 -0.91912 2011 ft 197 kts 193°
2026-04-24 08:28 44.89092 -0.92428 2001 ft 195 kts 189°
2026-04-24 08:28 44.87794 -0.92201 2013 ft 190 kts 152°
2026-04-24 08:28 44.87135 -0.91412 2005 ft 190 kts 127°
2026-04-24 08:28 44.86694 -0.89655 1999 ft 193 kts 103°
2026-04-24 08:29 44.86368 -0.87812 2012 ft 194 kts 108°
2026-04-24 08:29 44.85989 -0.86041 1996 ft 177 kts 109°
2026-04-24 08:29 44.85657 -0.84520 2016 ft 154 kts 109°
2026-04-24 08:29 44.85347 -0.83112 1891 ft 150 kts 109°
2026-04-24 08:30 44.85048 -0.81745 1642 ft 144 kts 109°
2026-04-24 08:30 44.84761 -0.80421 1403 ft 139 kts 109°
2026-04-24 08:30 44.84482 -0.79125 1201 ft 137 kts 108°
2026-04-24 08:30 44.84207 -0.77842 990 ft 137 kts 108°
2026-04-24 08:31 44.83932 -0.76558 777 ft 136 kts 108°
2026-04-24 08:31 44.83661 -0.75280 575 ft 136 kts 107°
2026-04-24 08:31 44.83386 -0.74009 366 ft 136 kts 108°
2026-04-24 08:31 44.83123 -0.72742 210 ft 134 kts 108°
2026-04-24 08:32 44.82879 -0.71576 171 ft 110 kts 108°
2026-04-24 08:32 44.82701 -0.70768 169 ft 62 kts 105°
2026-04-24 08:32 44.82634 -0.70420 173 ft 20 kts 104°
2026-04-24 08:32 44.82588 -0.70237 172 ft 19 kts 115°
2026-04-24 08:33 44.82551 -0.70069 172 ft 12 kts 108°
2026-04-24 08:33 44.82586 -0.69969 171 ft 13 kts 19°
2026-04-24 08:33 44.82664 -0.69951 170 ft 9 kts
2026-04-24 08:33 44.82667 -0.69950 170 ft 1 kts
2026-04-24 08:34 44.82679 -0.69947 170 ft 4 kts
2026-04-24 08:34 44.82751 -0.70038 169 ft 23 kts 293°
2026-04-24 08:34 44.82797 -0.70256 170 ft 23 kts 285°
2026-04-24 08:34 44.82839 -0.70463 170 ft 21 kts 287°
2026-04-24 08:35 44.82882 -0.70659 170 ft 20 kts 287°
2026-04-24 08:35 44.82923 -0.70819 170 ft 13 kts 319°
2026-04-24 08:35 44.82998 -0.70776 169 ft 13 kts 44°
2026-04-24 08:35 44.83064 -0.70686 169 ft 14 kts 44°
2026-04-24 08:36 44.83137 -0.70586 168 ft 15 kts 45°
2026-04-24 08:36 44.83216 -0.70474 167 ft 14 kts 45°
2026-04-24 08:36 44.83230 -0.70411 166 ft 0 kts 156°
2026-04-24 08:36 44.83229 -0.70410 166 ft 2 kts 155°
2026-04-24 08:37 44.83206 -0.70385 167 ft 4 kts 136°
2026-04-24 08:37 44.83185 -0.70356 167 ft 0 kts 136°
2026-04-24 08:38 44.83185 -0.70357 167 ft 0 kts 135°